Regional Weather Roundup
Issued by NWS

Home | Current Version | Previous Version | Graphics & Text | Print | Product List | Glossary On
Versions: 1 2 3 4 5 6 7 8 9 10 11 12 13 14 15 16 17 18 19 20 21 22 23 24 25 26 27 28 29 30 31 32 33 34 35 36 37 38 39 40 41 42 43 44 45 46 47 48 49 50
000
ASUS43 KOAX 202202
RWRNE

WEATHER ROUNDUP FOR NEBRASKA
NATIONAL WEATHER SERVICE OMAHA NE
400 PM CST MON NOV 20 2017

NOTES: SATELLITE DATA IS BEING USED TO AUGMENT CLOUD COVER ABOVE
       12000 FEET.
       "FAIR" INDICATES FEW OR NO CLOUDS BELOW 12,000 FEET WITH NO
       SIGNIFICANT WEATHER AND/OR OBSTRUCTIONS TO VISIBILITY.


NEZ001>004-019>022-054>056-202300-
NEBRASKA PANHANDLE

CITY           SKY/WX    TMP DP  RH WIND       PRES   REMARKS
SCOTTSBLUFF    CLOUDY    59  15  18 NW23G35   29.75R
ALLIANCE       CLOUDY    58  20  22 NW22G30   29.71R
CHADRON        CLOUDY    57  20  23 W14       29.71R
GORDON         FAIR      57  17  20 W12       29.68R
SIDNEY         CLOUDY    61  16  17 NW21G32   29.77R
$$

NEZ057>060-069>072-079>082-202300-
SOUTHWEST NEBRASKA

CITY           SKY/WX    TMP DP  RH WIND       PRES   REMARKS
NORTH PLATTE   CLOUDY    64  19  17 NW16G25   29.66R
IMPERIAL       CLOUDY    68  11  11 NW23G31   29.70S
LEXINGTON      SUNNY     61  22  22 W12       29.63R
MCCOOK         CLOUDY    70  14  11 NW20G37   29.67R
OGALLALA       CLOUDY    64  16  15 NW17G25   29.71R
$$

NEZ005>010-023>029-035>040-094-202300-
NORTH CENTRAL NEBRASKA

CITY           SKY/WX    TMP DP  RH WIND       PRES   REMARKS
VALENTINE      CLOUDY    64  16  15 NW17G26   29.62R
AINSWORTH      SUNNY     62  20  20 NW8       29.61R
BROKEN BOW     CLOUDY    65  19  17 NW20G25   29.61R
O`NEILL        CLEAR     59  22  24 NW10      29.59R
ORD            SUNNY     62  16  16 NW14G26   29.58R
THEDFORD       CLOUDY    63  19  18 NW14G26   29.65R
$$

NEZ041-046>049-061>064-073>077-083>087-202300-
SOUTH CENTRAL NEBRASKA

CITY           SKY/WX    TMP DP  RH WIND       PRES   REMARKS
GRAND ISLAND   SUNNY     64  29  26 SW14      29.61S
AURORA         CLOUDY    63  25  23 SW15      29.60S
HASTINGS       CLOUDY    62  24  23 SW6       29.64R
HEBRON         CLOUDY    57  25  30 SW8       29.66R
HOLDREGE       SUNNY     63  24  23 W9        29.64R
KEARNEY        SUNNY     66  23  19 SW8       29.63R
$$

NEZ011>018-030>034-042>045-202300-
NORTHEAST NEBRASKA

CITY           SKY/WX    TMP DP  RH WIND       PRES   REMARKS
NORFOLK        CLEAR     63  19  18 W13       29.54S
ALBION         CLEAR     66  21  18 W7        29.56R
BLAIR          CLOUDY    58  29  33 SW13      29.60R
COLUMBUS       CLEAR     61  29  29 S13       29.57
FREMONT        CLOUDY    59  28  30 S9G16     29.60R
TEKAMAH        CLOUDY    59  28  30 S10       29.59R
WAYNE          CLOUDY    56  24  28 SW5       29.56R
$$

NEZ050>053-065>068-078-088>093-202300-
SOUTHEAST NEBRASKA

CITY           SKY/WX    TMP DP  RH WIND       PRES   REMARKS
LINCOLN        CLOUDY    58  26  29 SW18      29.63R
OMAHA EPPLEY   CLOUDY    59  26  28 SW10      29.61R
BEATRICE       CLOUDY    57  27  31 SW13G18   29.66R
FALLS CITY     CLOUDY    60  26  27 SW17G24   29.67R
NEBRASKA CITY  CLOUDY    57  30  35 SW13      29.64S
PLATTSMOUTH    PTCLDY    57  28  33 S20G25    29.62R
$$

NEZ044-045-051>053-067-202300-
OMAHA AREA

CITY           SKY/WX    TMP DP  RH WIND       PRES   REMARKS
OMAHA EPPLEY   CLOUDY    59  26  28 SW10      29.61R
BLAIR          CLOUDY    58  29  33 SW13      29.60R
FREMONT        CLOUDY    59  28  30 S9G16     29.60R
MILLARD        CLOUDY    60  29  31 SW7       29.61R
OFFUTT AFB     CLOUDY    58  26  30 S9        29.61R
PLATTSMOUTH    PTCLDY    57  28  33 S20G25    29.62R
WAHOO          FAIR      58  25  28 SW12      29.59S
$$



USA.gov is the U.S. government's official web portal to all federal, state and local government web resources and services.